Location: Elbart
(49.6135°N, 11.9134°E)
Time: 23:47:52
(UTC+00:00)

Cosmos 1833 Rocket - Pass Details

Date: 09 April 2020
Orbit: 834 x 838 km, 71.0° (Epoch: 29 May)

Event Time Altitude Azimuth Distance (km) Brightness Sun altitude
Exits shadow 22:21:12 25° 269° (W) 1,633 4.2 -31.2°
Maximum altitude 22:23:29 34° 312° (NW) 1,345 4.1 -31.3°
Drops below altitude 10° 22:28:37 10° 17° (NNE) 2,461 5.8 -31.5°
Sets 22:31:18 0° 26° (NNE) 3,398 6.5 -31.6°
